EDT,Max TemperatureF,Mean TemperatureF,Min TemperatureF,Max Dew PointF,MeanDew PointF,Min DewpointF,Max Humidity, Mean Humidity, Min Humidity, Max Sea Level PressureIn, Mean Sea Level PressureIn, Min Sea Level PressureIn, Max VisibilityMiles, Mean VisibilityMiles, Min VisibilityMiles, Max Wind SpeedMPH, Mean Wind SpeedMPH, Max Gust SpeedMPH,PrecipitationIn, CloudCover, Events, WindDirDegrees
2013-4-1,71,59,46,52,40,28,86,58,29,29.98,29.85,29.80,10,10,10,23,10,30,0.01,3,Rain,289
2013-4-2,59,47,34,27,21,15,70,45,19,30.15,30.09,30.01,10,10,10,17,6,23,0.00,0,,333
2013-4-3,59,44,29,23,18,14,64,41,17,30.31,30.24,30.17,10,10,10,13,4,21,0.00,0,,344
2013-4-4,49,43,36,34,25,14,92,59,26,30.39,30.23,29.97,10,8,4,16,9,22,0.58,4,Rain,53
2013-4-5,66,52,37,43,36,30,92,60,28,30.01,29.94,29.87,10,9,4,16,6,23,0.29,4,Rain,333
2013-4-6,64,49,33,33,28,20,82,53,23,30.27,30.19,30.03,10,10,10,16,3,22,0.00,0,,82
2013-4-7,73,55,37,41,37,33,85,57,29,30.25,30.16,30.06,10,10,10,21,7,29,0.00,0,,209
2013-4-8,80,65,49,53,48,41,83,65,47,30.13,30.07,30.01,10,10,10,20,8,25,0.00,1,,220
2013-4-9,86,70,54,54,51,49,83,58,32,30.14,30.07,30.01,10,10,10,18,7,24,0.00,0,,224
2013-4-10,88,74,59,57,55,53,78,55,31,30.05,29.98,29.89,10,10,10,18,9,24,0.00,0,,220
2013-4-11,82,72,61,61,57,54,78,59,40,29.94,29.85,29.74,10,10,10,22,9,29,0.00,1,,206
2013-4-12,84,72,59,64,59,37,81,56,31,29.75,29.67,29.55,10,8,1,31,10,43,0.92,6,Rain-Thunderstorm,225
2013-4-13,75,59,43,40,37,30,82,54,26,29.98,29.90,29.78,10,10,10,18,6,22,0.00,0,,274
2013-4-14,81,61,41,44,38,32,82,51,19,30.09,30.03,29.99,10,10,10,13,4,17,T,1,,209
2013-4-15,70,63,55,55,53,49,86,72,57,30.21,30.12,30.05,10,10,7,15,7,20,0.16,8,Rain,65
2013-4-16,78,69,59,59,57,55,90,72,54,30.32,30.23,30.16,10,10,10,8,2,14,0.00,5,,140
2013-4-17,80,68,55,63,58,53,93,73,52,30.19,30.15,30.09,10,10,10,9,2,12,0.00,2,,219
2013-4-18,80,73,65,60,58,54,81,60,39,30.18,30.09,30.00,10,10,7,14,6,21,0.00,4,,176
2013-4-19,79,68,57,66,61,51,81,70,58,29.99,29.82,29.68,10,9,1,40,9,62,0.05,6,Rain-Thunderstorm,207
2013-4-20,65,52,39,47,33,28,82,54,26,30.27,30.09,29.87,10,10,10,18,6,24,0.00,0,,323
2013-4-21,61,50,38,37,32,26,79,58,36,30.51,30.43,30.28,10,10,10,20,7,26,0.00,0,,60
2013-4-22,63,50,37,38,33,27,85,57,28,30.48,30.39,30.28,10,10,10,20,9,24,0.00,2,,53
2013-4-23,68,58,48,47,43,40,72,57,42,30.30,30.20,30.11,10,10,10,14,5,17,0.00,4,,69
2013-4-24,76,61,45,53,51,43,93,70,46,30.12,30.02,29.94,10,10,6,25,9,33,0.00,1,,222
2013-4-25,70,57,44,52,38,31,76,50,24,30.27,30.19,30.02,10,10,10,20,5,28,0.00,2,,346
2013-4-26,70,53,36,45,35,30,85,54,23,30.43,30.36,30.30,10,10,10,14,3,18,0.00,0,,35
2013-4-27,71,60,48,54,47,43,86,63,40,30.36,30.31,30.25,10,10,7,12,1,16,T,5,Rain,141
2013-4-28,57,56,54,54,52,50,93,88,83,30.26,30.19,30.06,10,6,2,10,2,16,0.67,8,Rain,85
2013-4-29,68,61,53,57,54,51,93,81,68,30.08,30.03,29.97,10,8,3,10,2,51,0.41,7,Rain,14
2013-4-30,66,61,55,55,54,52,93,78,63,30.19,30.11,30.02,10,10,5,16,6,20,0.00,7,,55